Weather History for Harlingen, TX

Change the Weather History Date:

Saturday, November 17, 2012

  Actual Average Record
Temperature  
Mean Temperature 67 °F 68 °F  
Max Temperature 78 °F 79 °F 92 °F (1938)
Min Temperature 56 °F 57 °F 33 °F (1936)
Degree Days  
Heating Degree Days 0 2  
Month to date heating degree days 1 15  
Since 1 July heating degree days 5 18  
Cooling Degree Days 2 5  
Month to date cooling degree days 132 109  
Year to date cooling degree days 4659 3885  
Growing Degree Days 17 (Base 50)    
Moisture  
Dew Point 51 °F    
Average Humidity 58    
Maximum Humidity 75    
Minimum Humidity 40    
Precipitation  
Precipitation 0.00 in 0.03 in 0.80 in (1995)
Month to date precipitation 0.03 1.08  
Year to date precipitation 13.27 23.50  
Sea Level Pressure  
Sea Level Pressure 30.26 in    
Wind  
Wind Speed 7 mph (NE)    
Max Wind Speed 15 mph    
Max Gust Speed 22 mph    
Visibility 10 miles    
Events      
T = Trace of Precipitation, MM = Missing Value Source: NWS Daily Summary

Daily Weather History Graph

Daily Weather History Graph

Search for Another Location

Airport:

Trip Planner

Search our weather history database for the weather conditions in past years. The results will help you decide how hot, cold, wet, or windy it might be!

Date:

Astronomy

Nov. 17, 2012 Rise Set
Actual Time 6:51 AM CST 5:40 PM CST
Civil Twilight 6:26 AM CST 6:04 PM CST
Nautical Twilight 5:58 AM CST 6:32 PM CST
Astronomical Twilight 5:30 AM CST 7:00 PM CST
Moon 10:36 AM CST (11/17) 9:49 PM CST (11/17)
Length of Visible Light 11h 37m
Length of Day
10h 49m
Waxing Crescent, 20% of the Moon is Illuminated
Nov 17
Waxing Crescent
Nov 20
First Quarter
Nov 28
Full
Dec 6
Last Quarter
Dec 13
New

Hourly Weather History & Observations

Time (CST) Temp. Dew Point Humidity Pressure Visibility Wind Dir Wind Speed Gust Speed Precip Events Conditions
12:52 AM 60.1 °F 51.1 °F 72% 30.27 in 10.0 mi NW 6.9 mph - N/A   Overcast
1:52 AM 62.1 °F 50.0 °F 65% 30.27 in 10.0 mi North 5.8 mph - N/A   Overcast
2:52 AM 60.1 °F 48.9 °F 67% 30.25 in 10.0 mi NNW 6.9 mph - N/A   Overcast
3:52 AM 57.9 °F 48.9 °F 72% 30.25 in 10.0 mi NNW 5.8 mph - N/A   Mostly Cloudy
4:52 AM 60.1 °F 48.9 °F 67% 30.24 in 10.0 mi North 5.8 mph - N/A   Overcast
5:52 AM 59.0 °F 48.9 °F 69% 30.25 in 10.0 mi North 8.1 mph - N/A   Mostly Cloudy
6:52 AM 59.0 °F 48.9 °F 69% 30.25 in 10.0 mi North 5.8 mph - N/A   Overcast
7:52 AM 62.1 °F 50.0 °F 65% 30.28 in 10.0 mi North 5.8 mph - N/A   Overcast
8:52 AM 64.9 °F 51.1 °F 61% 30.30 in 10.0 mi North 5.8 mph - N/A   Overcast
9:52 AM 69.1 °F 53.1 °F 57% 30.31 in 10.0 mi North 5.8 mph - N/A   Overcast
10:52 AM 73.0 °F 52.0 °F 48% 30.30 in 10.0 mi NE 4.6 mph - N/A   Overcast
11:52 AM 75.0 °F 52.0 °F 44% 30.29 in 10.0 mi NE 8.1 mph - N/A   Mostly Cloudy
12:52 PM 73.9 °F 52.0 °F 46% 30.26 in 10.0 mi NE 6.9 mph - N/A   Mostly Cloudy
1:52 PM 75.0 °F 51.1 °F 43% 30.24 in 10.0 mi East 10.4 mph - N/A   Mostly Cloudy
2:52 PM 77.0 °F 52.0 °F 42% 30.23 in 10.0 mi NE 13.8 mph 17.3 mph N/A   Mostly Cloudy
3:52 PM 73.0 °F 53.1 °F 49% 30.23 in 10.0 mi East 12.7 mph - N/A   Scattered Clouds
4:52 PM 72.0 °F 53.1 °F 51% 30.23 in 10.0 mi East 11.5 mph - N/A   Mostly Cloudy
5:52 PM 68.0 °F 53.1 °F 59% 30.24 in 10.0 mi ENE 9.2 mph - N/A   Clear
6:52 PM 64.0 °F 52.0 °F 65% 30.25 in 10.0 mi East 5.8 mph - N/A   Mostly Cloudy
7:52 PM 62.1 °F 52.0 °F 70% 30.26 in 10.0 mi ENE 6.9 mph - N/A   Clear
8:52 PM 61.0 °F 52.0 °F 72% 30.26 in 10.0 mi ENE 5.8 mph - N/A   Clear
9:52 PM 60.1 °F 52.0 °F 75% 30.27 in 10.0 mi ENE 4.6 mph - N/A   Clear
10:52 PM 59.0 °F 52.0 °F 78% 30.26 in 10.0 mi NE 3.5 mph - N/A   Clear
11:52 PM 57.0 °F 52.0 °F 83% 30.25 in 10.0 mi NE 3.5 mph - N/A   Clear